Location: Allos
(44.2333°N, 6.6333°E)
Time: 22:44:55
(UTC+00:00)

SAR-Lupe-4 - Pass Details

Date: 17 April 2021
Orbit: 483 x 483 km, 98.2° (Epoch: 13 April)

Event Time Altitude Azimuth Distance (km) Brightness Sun altitude
Rises 19:44:10 0° 359° (N) 2,560 7.7 -14.5°
Reaches altitude 10° 19:46:37 10° 342° (NNW) 1,674 7.0 -14.9°
Maximum altitude 19:49:17 20° 294° (WNW) 1,171 6.5 -15.3°
Drops below altitude 10° 19:51:57 10° 245° (WSW) 1,664 6.7 -15.7°
Sets 19:54:23 0° 228° (SW) 2,538 7.4 -16.1°
